Вернуться в каталог

ATLAS 5 CENTAUR DEB

АктивенHEO
NORAD 43970·DEBRIS·🇺🇸 United States

Запущен Sep 17, 2014 с Cape Canaveral Space Force Station

Loading…

Ближайшие Пролёты (ближайшие 24 часа)

TLE

УстаревающийSource: Space-Track

Эпоха: Sep 4, 2026, 21:20 UTC

1 43970U 14055Z   26247.88945091 -.00000158  00000-0  00000+0 0  9997
2 43970  20.6683 119.4659 4747323 210.5821 110.2093  1.90354251 55695

Отслеживайте ATLAS 5 CENTAUR DEB в реальном времени с AllMySat

Download on the App Store